This demonstration page uses our WeatherBlox Daily Observations layout. Learn more.

Left ArrowRight Arrow

47.50024, -111.30081

Hourly Observations for April 6, 2022

Temp ( °F °C ) Dew Point ( °F °C ) Humidity (%) Winds ( mph kmh ) Pressure ( in mb ) Visibility ( mi km ) Precip ( " mm )
12:53 am 00:53 Clear 34 1.1 16 -8.9 48 48 W 22 35 30.13 1020 10 16 0.00 0.00
1:53 am 01:53 Mostly Clear 33 0.6 16 -8.9 49 49 W 18 30 30.16 1021 10 16 0.00 0.00
2:53 am 02:53 Clear 32 0 16 -8.9 52 52 WSW 18 30 30.19 1023 10 16 0.00 0.00
3:53 am 03:53 Clear 31 -0.6 16 -8.9 54 54 W 13 20 30.23 1024 10 16 0.00 0.00
4:53 am 04:53 Clear 33 0.6 17 -8.3 52 52 W 18 30 30.25 1024 10 16 0.00 0.00
5:53 am 05:53 Mostly Clear 28 -2.2 16 -8.9 60 60 WSW 12 19 30.29 1026 10 16 0.00 0.00
6:53 am 06:53 Cloudy 32 0 17 -8.3 54 54 W 12 19 30.32 1027 10 16 0.00 0.00
7:53 am 07:53 Cloudy 33 0.6 18 -7.8 54 54 WSW 12 19 30.36 1028 10 16 0.00 0.00
8:53 am 08:53 Cloudy 38 3.3 17 -8.3 43 43 W 16 26 30.38 1029 10 16 0.00 0.00
9:53 am 09:53 Mostly Cloudy 43 6.1 15 -9.4 32 32 W 25 41 30.39 1029 10 16 0.00 0.00
10:53 am 10:53 Mostly Cloudy 47 8.3 14 -10 26 26 WNW 17 28 30.40 1029 10 16 0.00 0.00
11:53 am 11:53 Mostly Cloudy 46 7.8 11 -11.7 24 24 NW 8 13 30.40 1030 10 16 0.00 0.00
12:53 pm 12:53 Mostly Cloudy 47 8.3 10 -12.2 22 22 W 14 22 30.40 1029 10 16 0.00 0.00
1:53 pm 13:53 Cloudy 47 8.3 9 -12.8 21 21 WNW 13 20 30.40 1030 10 16 0.00 0.00
2:53 pm 14:53 Cloudy 47 8.3 9 -12.8 21 21 NW 14 22 30.40 1030 10 16 0.00 0.00
3:53 pm 15:53 Cloudy 48 8.9 7 -13.9 19 19 NW 18 30 30.42 1030 10 16 0.00 0.00
4:53 pm 16:53 Mostly Cloudy 52 11.1 6 -14.4 15 15 NW 17 28 30.40 1030 10 16 0.00 0.00
5:53 pm 17:53 Sunny 49 9.4 5 -15 16 16 WNW 17 28 30.44 1031 10 16 0.00 0.00
6:53 pm 18:53 Sunny 47 8.3 5 -15 18 18 NW 15 24 30.45 1031 10 16 0.00 0.00
7:53 pm 19:53 Sunny 42 5.6 7 -13.9 23 23 WNW 10 17 30.48 1032 10 16 0.00 0.00
8:53 pm 20:53 Clear 29 -1.7 8 -13.3 41 41 W 9 15 30.52 1034 10 16 0.00 0.00
9:53 pm 21:53 Clear 28 -2.2 9 -12.8 44 44 W 9 15 30.52 1034 10 16 0.00 0.00
10:53 pm 22:53 Clear 26 -3.3 11 -11.7 53 53 WSW 10 17 30.53 1034 10 16 0.00 0.00
11:53 pm 23:53 Clear 25 -3.9 12 -11.1 58 58 WSW 10 17 30.55 1034 10 16 0.00 0.00

Powered by AerisWeather